Location: Unspecified
(0.0000°N, 0.0000°E)
Time: 09:46:45
(UTC+00:00)

CZ-3B DEB - Pass Details

Date: 18 February 2026
Orbit: 643 x 41817 km, 26.5° (Epoch: 5 March)

Event Time Altitude Azimuth Distance (km) Brightness Sun altitude
Exits shadow 03:06:25 49° 265° (W) 12,834 ? -45.6°
Maximum altitude 03:58:12 61° 236° (SW) 22,523 ? -33.1°
Drops below altitude 10° 14:49:44 10° 31° (NNE) 2,679 ? 49.6°
Sets 14:51:23 0° 41° (NE) 3,285 ? 49.2°
